This is the latest recevied weather packets stored in our database for station/object KE8WAY. If no packets are shown the sender has not sent any weather packets the latest 10 day(s).
| Time | Temp. | Humidity | Pressure | Rain* | Wind** | Luminosity | Snow |
|---|---|---|---|---|---|---|---|
| 1777152242 | 11.67° C | 82% | 1013.3 hPa | 0 mm | - | 179 W/m² | - |
| 1777151936 | 12.22° C | 82% | 1013.2 hPa | 0 mm | - | 153 W/m² | - |
| 1777151633 | 12.22° C | 81% | 1013.2 hPa | 0 mm | - | 168 W/m² | - |
| 1777151330 | 12.22° C | 80% | 1013 hPa | 0 mm | - | 199 W/m² | - |
| 1777151029 | 12.22° C | 79% | 1013.1 hPa | 0 mm | - | 208 W/m² | - |
| 1777150724 | 12.22° C | 81% | 1012.9 hPa | 0 mm | - | 200 W/m² | - |
| 1777150420 | 12.22° C | 80% | 1013 hPa | 0 mm | - | 166 W/m² | - |
| 1777150117 | 12.22° C | 81% | 1012.9 hPa | 0 mm | - | 165 W/m² | - |
| 1777149812 | 12.22° C | 82% | 1012.7 hPa | 0 mm | - | 172 W/m² | - |
| 1777149509 | 12.22° C | 81% | 1013 hPa | 0 mm | - | 168 W/m² | - |
| 1777149206 | 12.78° C | 82% | 1012.8 hPa | 0 mm | - | 170 W/m² | - |
| 1777148901 | 12.22° C | 82% | 1012.8 hPa | 0 mm | - | 192 W/m² | - |
| 1777148598 | 12.22° C | 81% | 1012.6 hPa | 0 mm | - | 185 W/m² | - |
| 1777148293 | 12.22° C | 81% | 1012.6 hPa | 0 mm | - | 192 W/m² | - |
| 1777147990 | 12.22° C | 82% | 1012.5 hPa | 0 mm | - | 206 W/m² | - |
| 1777147686 | 12.22° C | 82% | 1012.5 hPa | 0 mm | - | 223 W/m² | - |
| 1777147382 | 12.78° C | 82% | 1012.5 hPa | 0 mm | - | 210 W/m² | - |
| 1777147077 | 12.78° C | 82% | 1012.6 hPa | 0 mm | - | 218 W/m² | - |
| 1777146773 | 12.78° C | 81% | 1012.4 hPa | 0 mm | - | 224 W/m² | - |
| 1777146469 | 12.78° C | 82% | 1012.5 hPa | 0 mm | - | 186 W/m² | - |
| 1777146166 | 13.33° C | 80% | 1012.4 hPa | 0 mm | - | 173 W/m² | - |
| 1777145861 | 13.33° C | 80% | 1012.6 hPa | 0 mm | - | 208 W/m² | - |
| 1777145558 | 13.33° C | 79% | 1012.3 hPa | 0 mm | - | 217 W/m² | - |
| 1777145253 | 13.33° C | 80% | 1012.4 hPa | 0 mm | - | 207 W/m² | - |
| 1777144948 | 13.33° C | 80% | 1012.6 hPa | 0 mm | - | 198 W/m² | - |
* Rain latest hour (hover to see other rain measurements)
** Current wind speed in m/s (hover to see current wind gust speed)